Regional Weather Roundup
Issued by NWS Grand Forks, ND

Home | Current Version | Previous Version | Graphics & Text | Print | Product List | Glossary On
Versions: 1 2 3 4 5 6 7 8 9 10 11 12 13 14 15 16 17 18 19 20 21 22 23 24 25 26 27 28 29 30 31 32 33 34 35 36 37 38 39 40 41 42 43 44 45 46 47 48 49 50
880
ASUS43 KFGF 071210
RWRFGF
PRAIRIE TO PINES  WEATHER ROUNDUP
NATIONAL WEATHER SERVICE EASTERN NORTH DAKOTA/GRAND FORKS ND
600 AM CST SUN FEB 07 2016

 **SATELLITE DATA USED TO AUGMENT SKY COVER AT AUTOMATED STATIONS**
 *****  WEATHER ACROSS EASTERN NORTH DAKOTA  *****

CITY           SKY/WX    TMP DP  RH WIND       PRES   REMARKS
GRAND FORKS    CLOUDY    37  29  72 W24G31    29.50S
6HR MIN TEMP:  34; 6HR MAX TEMP:  39; 6HR PCP:  0.11;

GRAND FRKS AFB CLOUDY    36  28  72 W26G35    29.50S
GRAND FRKS NWS   N/A     34 N/A N/A NW18        N/A  WCI  23
DEVILS LAKE    MOCLDY    33  27  78 W26G35    29.56S WCI  20
6HR MIN TEMP:  32; 6HR MAX TEMP:  35; 6HR PCP:  0.01;

FARGO          CLOUDY    37  27  67 W25G33    29.58R
WAHPETON ARPT  CLOUDY    36  27  69 W23       29.65R
$$

 ***** WEATHER ACROSS CENTRAL AND WESTERN NORTH DAKOTA  *****

CITY           SKY/WX    TMP DP  RH WIND       PRES   REMARKS
BISMARCK       CLOUDY    39  21  48 W20G35    29.78S
6HR MIN TEMP:  37; 6HR MAX TEMP:  41;

MINOT          FLURRIES  37  25  61 W31G45    29.68R
6HR MIN TEMP:  36; 6HR MAX TEMP:  40; 6HR PCP: TRACE;

JAMESTOWN      PTCLDY    34  23  64 W25G36    29.63F WCI  21
6HR MIN TEMP:  34; 6HR MAX TEMP:  38;

MINOT AFB      CLOUDY    34  29  82 NW37G47   29.66R WCI  20
GARRISON         N/A     33  27  78 NW28G41   29.73R WCI  20
WILLISTON      FLURRIES  32  25  75 NW31G47   29.88R WCI  17
6HR MIN TEMP:  32; 6HR MAX TEMP:  36; 6HR PCP: TRACE;

DICKINSON      LGT SNOW  28  22  78 NW35G44   29.86R WCI  11
6HR MIN TEMP:  28; 6HR MAX TEMP:  34; 6HR PCP: TRACE;

HETTINGER      CLEAR     32  15  49 W41G61    29.92S WCI  16
6HR MIN TEMP:  32; 6HR MAX TEMP:  35; 6HR PCP: TRACE;

$$

 *****  OTHER AIRPORT OBSERVATIONS IN OUR AREA  *****

CITY           SKY/WX    TMP DP  RH WIND       PRES   REMARKS
WALHALLA       FAIR      36  36 100 NW21G31   29.48R
GRAFTON AIRPOR PTSUNNY   36  30  80 NW24G32   29.50S
VALLEY CITY AR FLURRIES  34  25  69 W30G44    29.61R WCI  20
CANDO          NOT AVBL
CAVALIER APRT  CLOUDY    36  32  87 NW20G29   29.47R
GWINNER        FAIR      37  28  70 W18G29    29.69R
SHEYENNE NWR     N/A     37  25  62 W16       29.95S
ROLLA          MIX PCPN  32  28  86 NW30G40   29.54S WCI  18
 ***** THE ABOVE OBSERVATIONS ARE NON NWS ARE NOT QUALITY
       CONTROLLED AND MAY MIS-REPORT RAIN FOR SNOW...
$$

  *****  WEATHER ACROSS NORTHERN MINNESOTA  *****

CITY           SKY/WX    TMP DP  RH WIND       PRES   REMARKS
FLAG ISLAND    CLOUDY    32  30  93 W8        29.35R WCI  25
WARROAD        CLOUDY    32  28  86 W14       29.37S WCI  22
ROSEAU         CLOUDY    32  27  80 W16G23    29.39S WCI  21
HALLOCK        LGT SNOW  34  32  93 NW10      29.47R
THF RVR FALLS  CLOUDY    34  28  80 W20G25    29.48R WCI  22
6HR MIN TEMP:  34; 6HR MAX TEMP:  37;

BAUDETTE       CLOUDY    35  29  78 W12       29.35F
6HR MIN TEMP:  35; 6HR MAX TEMP:  37;

WASKISH        LGT RAIN  34  32  93 W15       29.40S WCI  24
CROOKSTON      LGT SNOW  34  32  93 NW20      29.51S WCI  22
STEPHEN NDAWN    N/A     34  32  93 W15         N/A  WCI  24
GREENBUSH NDAW   N/A     30  30 100 NW13        N/A  WCI  20
$$
  *****  WEATHER ACROSS CENTRAL AND WEST MINNESOTA  *****

CITY           SKY/WX    TMP DP  RH WIND       PRES   REMARKS
FOSSTON        LGT SNOW  30  30 100 W17       29.49R WCI  18
BEMIDJI        LGT RAIN  33  32  97 W16       29.44R WCI  22
PARK RAPIDS    LGT SNOW  34  32  92 W20G28    29.48R FOG     WCI  23
6HR MIN TEMP:  34; 6HR MAX TEMP:  37; 6HR PCP:  0.03;

ELBOW LAKE     CLOUDY    35  28  76 NW22G31   29.63R HAZE    WCI  23
WADENA         LGT SNOW  32  30  93 W18G28    29.53R WCI  20
DETROIT LAKES  LGT SNOW  32  32 100 NW20G28   29.55R WCI  20
MOORHEAD       CLOUDY    36  28  75 W23G29    29.59R
FERGUS FALLS   CLOUDY    36  30  80 W26       29.63R
MORRIS MN      PTCLDY    36  27  69 W23       29.65R
STAPLES        RAIN      32  30  93 W20G29    29.52S WCI  20
$$
  *****  WEATHER ELSEWHERE ACROSS MINNESOTA  *****

CITY           SKY/WX    TMP DP  RH WIND       PRES   REMARKS
DULUTH         FLURRIES  32  29  88 SW12      29.45F WCI  23
6HR MIN TEMP:  30; 6HR MAX TEMP:  32; 6HR PCP:  0.01;

INTRNTL FALLS  CLOUDY    34  32  92 S5        29.37S
6HR MIN TEMP:  32; 6HR MAX TEMP:  34;

ELY            CLOUDY    32  30  93 S6        29.43S
CLOQUET        CLOUDY    34  30  86 S8        29.46F
WHEATON        CLEAR     37  28  70 W21G30    29.69S
BRAINERD       CLOUDY    34  31  88 W17       29.50S WCI  23
6HR MIN TEMP:  31; 6HR MAX TEMP:  36; 6HR PCP: TRACE;

HIBBING        LGT SNOW  30  29  96 S5        29.41F FOG
6HR MIN TEMP:  30; 6HR MAX TEMP:  33; 6HR PCP: TRACE;

ALEXANDRIA     FLURRIES  35  27  72 W23G36    29.59S WCI  23
6HR MIN TEMP:  35; 6HR MAX TEMP:  37; 6HR PCP:  0.02;

SAINT CLOUD    CLOUDY    36  30  79 W20G33    29.58S
6HR MIN TEMP:  32; 6HR MAX TEMP:  37; 6HR PCP:  0.02;

MINNEAPOLIS    MOCLDY    34  28  79 SW14      29.63F WCI  25
6HR MIN TEMP:  31; 6HR MAX TEMP:  35; 6HR PCP: TRACE;

$$

  *****  WEATHER ACROSS SOUTH DAKOTA  *****

CITY           SKY/WX    TMP DP  RH WIND       PRES   REMARKS
SIOUX FALLS    MOCLDY    36  24  62 W17G28    29.84R
6HR MIN TEMP:  35; 6HR MAX TEMP:  40;

BROOKINGS      CLEAR     34  24  67 W25G33    29.77R WCI  21
WATERTOWN      PTCLDY    33  23  66 W21       29.75S WCI  21
6HR MIN TEMP:  32; 6HR MAX TEMP:  37;

HURON          MOCLDY    36  28  73 W23       29.87R
6HR MIN TEMP:  35; 6HR MAX TEMP:  38;

SISSETON         N/A     37  25  61 NW28G39   29.67R
ABERDEEN       CLOUDY    38  24  57 W20G29    29.79R
6HR MIN TEMP:  38; 6HR MAX TEMP:  41;

MITCHELL       CLOUDY    36  27  69 W16       29.91S
PIERRE         CLOUDY    36  28  73 W22G35    29.94S
6HR MIN TEMP:  35; 6HR MAX TEMP:  38;

MOBRIDGE       CLEAR     38  24  57 W23G35    29.82F
RAPID CITY     PTCLDY    36  12  37 NW24G40   30.07R
6HR MIN TEMP:  35; 6HR MAX TEMP:  39;

$$

  *****  SOME WEATHER IN NEARBY STATES *****

CITY           SKY/WX    TMP DP  RH WIND       PRES   REMARKS
GLASGOW MT     CLEAR     31  19  61 NW33G44   30.11R WCI  15
6HR MIN TEMP:  31; 6HR MAX TEMP:  34;

GREAT FALLS MT PTCLDY    22  15  75 SW12      30.35R WCI  10
6HR MIN TEMP:  21; 6HR MAX TEMP:  31;

CHEYENNE WY    CLEAR     31  17  56 NW10      30.15R WCI  22
6HR MIN TEMP:  31; 6HR MAX TEMP:  37;

SCOTTSBLUFF NE CLOUDY    31  21  66 NW14      30.19R WCI  21
6HR MIN TEMP:  26; 6HR MAX TEMP:  33;

OMAHA NE       CLOUDY    39  26  59 W14       29.93F
6HR MIN TEMP:  31; 6HR MAX TEMP:  40;

DES MOINES IA  CLOUDY    36  27  69 W10       29.87R
6HR MIN TEMP:  35; 6HR MAX TEMP:  40;

DAVENPORT IA   CLOUDY    37  28  70 SW15      29.83F
6HR MIN TEMP:  37; 6HR MAX TEMP:  39;

CHICAGO IL     MOCLDY    38  28  67 SW16      29.87F
6HR MIN TEMP:  34; 6HR MAX TEMP:  38;

EAU CLAIRE WI  CLEAR     27  23  85 SW8       29.63F WCI  19
6HR MIN TEMP:  27; 6HR MAX TEMP:  33;

LA CROSSE WI   CLOUDY    34  27  75 S12       29.70F
6HR MIN TEMP:  32; 6HR MAX TEMP:  36;

$$

  *****  SOME NATIONAL WEATHER *****

CITY           SKY/WX    TMP DP  RH WIND       PRES   REMARKS
LA GUARDIA NY  PTCLDY    35  24  64 SW3       30.20R
6HR MIN TEMP:  33; 6HR MAX TEMP:  37;

RALEIGH NC     CLOUDY    37  25  61 NE9       30.10F
6HR MIN TEMP:  37; 6HR MAX TEMP:  39;

ATLANTA GA     PTCLDY    30  20  66 NW10      30.14S WCI  21
6HR MIN TEMP:  30; 6HR MAX TEMP:  35;

NEW ORLEANS LA CLEAR     39  32  76 CALM      30.29S
6HR MIN TEMP:  37; 6HR MAX TEMP:  44;

OKLAHOMA CITY  PTCLDY    30  25  81 S7        30.13F WCI  23
6HR MIN TEMP:  29; 6HR MAX TEMP:  37;

ALBUQUERQUE NM CLOUDY    33  14  45 N7        30.33F
6HR MIN TEMP:  31; 6HR MAX TEMP:  39;

SALT LAKE CITY PTCLDY    24  19  81 E8        30.50R WCI  15
6HR MIN TEMP:  24; 6HR MAX TEMP:  29;

LOS ANGELES CA CLEAR     60  23  24 NE3       30.13F
6HR MIN TEMP:  54; 6HR MC1F1C2F2C3F3C4F4C5F5C6F6C7F7C8F8C9F9CaFaCbFbCcFcCd!



USA.gov is the U.S. government's official web portal to all federal, state and local government web resources and services.